Location: Unnamed
(23.5608°S, 46.6833°W)
Time: 10:01:29
(UTC-03:00)

NOAA 15 - Pass Details

Date: 26 July 2024
Orbit: 794 x 810 km, 98.5° (Epoch: 29 April)

Event Time Altitude Azimuth Distance (km) Brightness Sun altitude
Exits shadow 17:45:59 - 95° (E) 3,272 7.1 -1.6°
Enters shadow 19:08:22 -28° 171° (S) 7,521 9.5 -19.7°
Maximum altitude 19:27:04 58° 79° (E) 939 4.6 -23.9°
